TimeCDT,TemperatureF,Dew PointF,Humidity,Sea Level PressureIn,VisibilityMPH,Wind Direction,Wind SpeedMPH,Gust SpeedMPH,PrecipitationIn,Events,Conditions,WindDirDegrees,DateUTC
12:15 AM,53.6,32.0,44,29.76,10.0,SSW,12.7,23.0,N/A,,Overcast,210,2012-10-09 05:15:00
12:35 AM,53.6,32.0,44,29.76,10.0,SSW,15.0,21.9,N/A,,Mostly Cloudy,210,2012-10-09 05:35:00
12:55 AM,53.6,32.0,44,29.76,10.0,SSW,13.8,-,N/A,,Scattered Clouds,210,2012-10-09 05:55:00
1:15 AM,53.6,32.0,44,29.76,10.0,SSW,13.8,19.6,N/A,,Mostly Cloudy,210,2012-10-09 06:15:00
1:35 AM,53.6,32.0,44,29.76,10.0,SSW,15.0,19.6,N/A,,Mostly Cloudy,210,2012-10-09 06:35:00
1:55 AM,53.6,32.0,44,29.76,10.0,SW,13.8,19.6,N/A,,Overcast,220,2012-10-09 06:55:00
2:15 AM,53.6,32.0,44,29.76,10.0,SW,15.0,19.6,N/A,,Overcast,220,2012-10-09 07:15:00
3:35 AM,51.8,35.6,54,29.76,10.0,SW,15.0,24.2,N/A,,Drizzle,220,2012-10-09 08:35:00
3:55 AM,51.8,37.4,58,29.76,10.0,SW,10.4,17.3,N/A,Rain,Light Rain,230,2012-10-09 08:55:00
4:15 AM,51.8,37.4,58,29.76,10.0,SW,10.4,17.3,N/A,,Drizzle,230,2012-10-09 09:15:00
4:35 AM,51.8,37.4,58,29.76,10.0,SW,12.7,17.3,N/A,,Overcast,230,2012-10-09 09:35:00
4:55 AM,51.8,35.6,54,29.76,10.0,SW,8.1,-,N/A,,Overcast,230,2012-10-09 09:55:00
5:15 AM,51.8,35.6,54,29.76,10.0,WSW,6.9,-,N/A,,Overcast,240,2012-10-09 10:15:00
5:35 AM,51.8,37.4,58,29.76,10.0,SW,5.8,-,N/A,,Overcast,220,2012-10-09 10:35:00
5:55 AM,50.0,37.4,62,29.77,10.0,SW,6.9,-,N/A,,Overcast,220,2012-10-09 10:55:00
6:15 AM,51.8,35.6,54,29.77,10.0,SSW,6.9,-,N/A,,Overcast,210,2012-10-09 11:15:00
7:15 AM,50.0,37.4,62,29.78,10.0,SSW,9.2,-,N/A,,Overcast,210,2012-10-09 12:15:00
7:35 AM,50.0,37.4,62,29.78,10.0,SSW,9.2,-,N/A,Rain,Rain,200,2012-10-09 12:35:00
7:55 AM,50.0,37.4,62,29.78,10.0,SSW,6.9,-,N/A,,Light Drizzle,200,2012-10-09 12:55:00
8:15 AM,50.0,39.2,66,29.78,10.0,SSW,8.1,-,N/A,Rain,Rain,200,2012-10-09 13:15:00
8:35 AM,46.4,41.0,81,29.78,10.0,SSW,9.2,-,N/A,Rain,Rain,200,2012-10-09 13:35:00
9:15 AM,46.4,42.8,87,29.77,10.0,SW,11.5,-,N/A,,Overcast,220,2012-10-09 14:15:00
9:35 AM,48.2,42.8,82,29.77,10.0,SSW,11.5,-,N/A,,Overcast,210,2012-10-09 14:35:00
9:55 AM,48.2,42.8,82,29.77,10.0,SSW,10.4,-,N/A,,Light Drizzle,210,2012-10-09 14:55:00
10:15 AM,48.2,42.8,82,29.77,10.0,SSW,9.2,16.1,N/A,,Overcast,200,2012-10-09 15:15:00
10:35 AM,48.2,42.8,82,29.76,10.0,SSW,11.5,17.3,N/A,,Overcast,210,2012-10-09 15:35:00
10:55 AM,48.2,42.8,82,29.76,10.0,SW,11.5,16.1,N/A,,Overcast,220,2012-10-09 15:55:00
11:15 AM,46.4,42.8,87,29.76,10.0,SSW,9.2,17.3,N/A,,Overcast,210,2012-10-09 16:15:00
11:35 AM,46.4,42.8,87,29.74,10.0,SSW,10.4,-,N/A,,Overcast,210,2012-10-09 16:35:00
11:55 AM,46.4,42.8,87,29.74,4.0,SW,9.2,16.1,N/A,Rain,Rain,220,2012-10-09 16:55:00
12:15 PM,46.4,44.6,93,29.73,5.0,SW,5.8,-,N/A,,Drizzle,230,2012-10-09 17:15:00
12:35 PM,46.4,44.6,93,29.72,10.0,SW,6.9,-,N/A,,Light Drizzle,220,2012-10-09 17:35:00
12:55 PM,46.4,44.6,93,29.72,7.0,SW,9.2,-,N/A,Rain,Rain,230,2012-10-09 17:55:00
1:15 PM,46.4,44.6,93,29.72,10.0,SW,9.2,-,N/A,Rain,Light Rain,230,2012-10-09 18:15:00
1:35 PM,46.4,46.4,100,29.73,7.0,SW,9.2,-,0.01,Rain,Light Rain,220,2012-10-09 18:35:00
1:55 PM,46.4,46.4,100,29.72,10.0,SW,9.2,-,0.03,Rain,Light Rain,220,2012-10-09 18:55:00
2:15 PM,46.4,46.4,100,29.71,7.0,SW,8.1,-,0.01,Rain,Light Rain,220,2012-10-09 19:15:00
2:35 PM,48.2,46.4,93,29.71,7.0,SSW,6.9,-,0.02,Rain,Rain,210,2012-10-09 19:35:00
2:55 PM,48.2,46.4,93,29.71,7.0,SW,9.2,-,0.03,Rain,Rain,220,2012-10-09 19:55:00
3:15 PM,46.4,44.6,93,29.74,5.0,WNW,18.4,25.3,0.03,Rain,Rain,300,2012-10-09 20:15:00
3:35 PM,44.6,42.8,93,29.75,7.0,West,11.5,19.6,0.05,Rain,Rain,280,2012-10-09 20:35:00
3:55 PM,42.8,42.8,100,29.76,5.0,WNW,8.1,-,0.05,,Heavy Drizzle,290,2012-10-09 20:55:00
4:15 PM,42.8,41.0,93,29.78,5.0,WNW,19.6,-,0.02,Rain,Light Rain,290,2012-10-09 21:15:00
4:35 PM,41.0,39.2,93,29.78,7.0,WNW,10.4,-,0.02,Rain,Rain,290,2012-10-09 21:35:00
4:55 PM,41.0,41.0,100,29.78,10.0,WNW,6.9,-,0.02,,Drizzle,290,2012-10-09 21:55:00
5:15 PM,41.0,37.4,87,29.78,10.0,WSW,8.1,-,N/A,,Light Drizzle,250,2012-10-09 22:15:00
5:35 PM,41.0,37.4,87,29.78,10.0,WSW,6.9,-,N/A,,Overcast,240,2012-10-09 22:35:00
5:55 PM,41.0,37.4,87,29.78,10.0,WSW,4.6,-,N/A,,Mostly Cloudy,240,2012-10-09 22:55:00
6:15 PM,41.0,39.2,93,29.79,10.0,SW,5.8,-,N/A,,Scattered Clouds,230,2012-10-09 23:15:00
6:35 PM,41.0,39.2,93,29.79,10.0,SW,5.8,-,N/A,,Clear,230,2012-10-09 23:35:00
6:55 PM,41.0,39.2,93,29.80,10.0,SW,5.8,-,N/A,,Clear,230,2012-10-09 23:55:00
7:15 PM,41.0,39.2,93,29.80,10.0,WSW,4.6,-,N/A,,Scattered Clouds,240,2012-10-10 00:15:00
7:35 PM,41.0,39.2,93,29.80,10.0,WSW,5.8,-,N/A,,Mostly Cloudy,240,2012-10-10 00:35:00
7:55 PM,41.0,39.2,93,29.80,10.0,WSW,5.8,-,N/A,,Overcast,240,2012-10-10 00:55:00
8:15 PM,41.0,39.2,93,29.80,10.0,SW,8.1,-,N/A,,Overcast,230,2012-10-10 01:15:00
8:35 PM,41.0,39.2,93,29.80,10.0,SW,9.2,-,N/A,,Overcast,230,2012-10-10 01:35:00
8:55 PM,41.0,37.4,87,29.80,10.0,WSW,5.8,-,N/A,,Overcast,240,2012-10-10 01:55:00
9:15 PM,41.0,39.2,93,29.80,10.0,WSW,6.9,-,N/A,,Overcast,250,2012-10-10 02:15:00
9:35 PM,41.0,39.2,93,29.80,10.0,WSW,4.6,-,N/A,,Overcast,240,2012-10-10 02:35:00
9:55 PM,41.0,39.2,93,29.80,10.0,WSW,4.6,-,N/A,,Overcast,240,2012-10-10 02:55:00
10:15 PM,41.0,39.2,93,29.81,10.0,WSW,6.9,-,N/A,,Mostly Cloudy,250,2012-10-10 03:15:00
10:35 PM,39.2,37.4,93,29.81,10.0,West,5.8,-,N/A,,Clear,260,2012-10-10 03:35:00
10:55 PM,39.2,37.4,93,29.81,10.0,West,5.8,-,N/A,,Clear,260,2012-10-10 03:55:00
11:15 PM,39.2,37.4,93,29.81,10.0,West,6.9,-,N/A,,Mostly Cloudy,260,2012-10-10 04:15:00
11:35 PM,39.2,35.6,87,29.81,10.0,West,6.9,-,N/A,,Scattered Clouds,270,2012-10-10 04:35:00
11:55 PM,37.4,35.6,93,29.81,10.0,West,8.1,-,N/A,,Clear,280,2012-10-10 04:55:00